星链-32515 (STARLINK-32515)

导读

STARLINK-32515是美国SpaceX公司星链(Starlink)互联网星座的成员,于2024年10月30日发射入轨。星链星座旨在为全球提供低延迟宽带互联网服务,尤其覆盖偏远网络空白区域。 作为量产低轨卫星,STARLINK-32515采用平板设计,搭载氪工质霍尔推进器,具备自主避撞能力,寿命末期会主动离轨再入大气层烧毁,是SpaceX推进全球卫星互联网覆盖的重要一环。

基本信息
目录编号:
61705
目录名称:
STARLINK-32515
国际标识:
2024-195U
轨道中心:
EARTH
卫星名称:
星链-32515
卫星全名:
星链-32515 (STARLINK-32515)
卫星状态:
在轨 (已飞行595 天)
发射日期:
2024-10-30 UTC
国别 :
美国 (US)
星等 :
--
轨道信息
数据来源 国际轨道数据
星历时间: 2026-06-17T08:13:00+0800
20小时前
查看轨道信息
半长轴: 6853.38km
偏心率: 0.000127
轨道倾角: 53.161°
近地点辐角 91.044°
升交点赤经 54.317°
平近点角 269.071°
近地点: 474.372km
远地点: 476.114km
周期: 94.106分钟
每日圈数: 15.301907
详细信息
固有亮度:
5
最大亮度:
2.5
卫星平台:
Starlink V1.0
覆盖范围:
全球
运营商:
太空探索技术公司
运营商所在国:
美国
制造商(研发单位):
太空探索技术公司
制造商所在国:
美国
使用方式:
暂无
卫星简介
Starlink 计划是 SpaceX 推出的全球卫星互联网项目,通过发射低轨道卫星,为全球尤其是偏远地区提供高速、低延迟的互联网服务。自 2019 年起,Starlink 已部署数千颗卫星,旨在缩小全球数字鸿沟,推动互联网普及。该项目还为军事、航空等行业提供通信支持,带来广泛经济效益。
2D轨道图
3D轨道图
轨道高度分析图
轨道倾角分析图
轨道综合分析图
查看轨道综合分析图